Simultaneous Nadir Overpasses (SNOs) Predictions

Prediction of SNOs between METOP-A and TERRA Satellite Orbit:

Table of predicted SNOs for the next 14.0 days since TLE Epoch: 8/26/2012
Index Date (METOP-A) Time (METOP-A) METOP-A Lat,Lon Date (TERRA) Time (TERRA) TERRA Lat,Lon Distance(km) Time Diff (sec)
1 08/27/2012 03:09:14 -81.31, -0.51 08/27/2012 03:10:26 -81.31, -0.43 1.44 72
2 08/27/2012 03:59:54 81.31, 167.25 08/27/2012 03:59:52 81.32, 167.30 0.90 2
3 08/27/2012 04:50:18 -81.35, -18.93 08/27/2012 04:49:04 -81.58, -19.25 26.16 74
4 08/29/2012 22:43:37 -81.31, 65.97 08/29/2012 22:44:42 -81.32, 66.10 2.30 65
5 08/29/2012 23:34:16 81.32,-126.28 08/29/2012 23:34:07 81.32,-126.19 1.57 9
6 09/01/2012 18:17:59 -81.31, 132.49 09/01/2012 18:18:57 -81.32, 132.57 1.59 58
7 09/01/2012 19:08:39 81.32, -59.78 09/01/2012 19:08:23 81.32, -59.75 0.76 16
8 09/04/2012 13:52:22 -81.31,-160.96 09/04/2012 13:53:13 -81.32,-161.03 1.28 51
9 09/04/2012 14:43:02 81.32, 6.74 09/04/2012 14:42:39 81.32, 6.63 1.98 23
10 09/07/2012 09:26:46 -81.31, -94.78 09/07/2012 09:27:29 -81.31, -94.69 1.45 43




NCC Satellite Simultaneous Nadir Overpasses (SNOs) Prediction Service
